TVS31R LKPR-LGIR

Flight info

Callsign TVS31R
Flight time 2h 27m
Altitude 37000
Route VOZ DCT LIKSA DCT PEPIK DCT KEROP DCT IBISI DCT MAKED DCT KEA UL607 GIVIS T514 XAVIS
Aircraft A320/M-SDE2E3FGIJ1RWXYZ/LB1

Departure

Time 2026-05-04 14:48
Airport Václav Havel Airport Prague (LKPR)

Arrival

Time 2026-05-04 17:15
Airport Heraklion International Nikos Kazantzakis Airport (LGIR)
Time Latitude Longitude Altitude Speed Heading
2026-05-04 14:16 50.10461 14.26533 1174 ft 0 kts 34°
2026-05-04 14:38 50.10455 14.26526 1197 ft 4 kts 34°
2026-05-04 14:39 50.10434 14.26501 1170 ft 4 kts 63°
2026-05-04 14:39 50.10432 14.26478 1169 ft 0 kts 124°
2026-05-04 14:41 50.10429 14.26486 1169 ft 2 kts 124°
2026-05-04 14:42 50.10399 14.26555 1172 ft 8 kts 124°
2026-05-04 14:42 50.10365 14.26612 1174 ft 6 kts 163°
2026-05-04 14:42 50.10306 14.26575 1172 ft 10 kts 214°
2026-05-04 14:43 50.10257 14.26527 1176 ft 6 kts 205°
2026-05-04 14:43 50.10221 14.26553 1176 ft 8 kts 131°
2026-05-04 14:43 50.10178 14.26641 1177 ft 12 kts 128°
2026-05-04 14:43 50.10122 14.26754 1182 ft 14 kts 128°
2026-05-04 14:44 50.10066 14.26868 1189 ft 12 kts 126°
2026-05-04 14:44 50.10017 14.26970 1195 ft 12 kts 128°
2026-05-04 14:44 50.09963 14.27083 1199 ft 14 kts 126°
2026-05-04 14:44 50.09897 14.27222 1201 ft 18 kts 127°
2026-05-04 14:45 50.09809 14.27383 1204 ft 21 kts 134°
2026-05-04 14:45 50.09696 14.27552 1206 ft 23 kts 135°
2026-05-04 14:45 50.09588 14.27719 1211 ft 22 kts 135°
2026-05-04 14:45 50.09482 14.27882 1215 ft 20 kts 135°
2026-05-04 14:46 50.09380 14.28039 1214 ft 21 kts 136°
2026-05-04 14:46 50.09273 14.28205 1214 ft 19 kts 135°
2026-05-04 14:46 50.09163 14.28277 1211 ft 17 kts 210°
2026-05-04 14:46 50.09072 14.28172 1209 ft 11 kts 226°
2026-05-04 14:47 50.09082 14.28090 1208 ft 0 kts 306°
2026-05-04 14:47 50.09093 14.28068 1208 ft 12 kts 307°
2026-05-04 14:47 50.09299 14.27641 1213 ft 85 kts 307°
2026-05-04 14:47 50.09781 14.26645 1207 ft 143 kts 307°
2026-05-04 14:48 50.10467 14.25222 1337 ft 174 kts 308°
2026-05-04 14:48 50.11194 14.23735 2022 ft 173 kts 307°
2026-05-04 14:48 50.11920 14.22265 2670 ft 174 kts 306°
2026-05-04 14:48 50.12650 14.20755 3235 ft 178 kts 306°
2026-05-04 14:49 50.13434 14.19111 3452 ft 201 kts 306°
2026-05-04 14:49 50.14318 14.17258 3663 ft 225 kts 306°
2026-05-04 14:49 50.15318 14.15163 4044 ft 250 kts 304°
2026-05-04 14:49 50.16037 14.12669 4576 ft 264 kts 278°
2026-05-04 14:50 50.15914 14.09824 5312 ft 268 kts 250°
2026-05-04 14:50 50.14900 14.07414 6144 ft 270 kts 220°
2026-05-04 14:50 50.13233 14.06100 6986 ft 274 kts 192°
2026-05-04 14:50 50.11341 14.06257 7790 ft 280 kts 162°
2026-05-04 14:51 50.09683 14.07892 8603 ft 287 kts 140°
2026-05-04 14:51 50.08195 14.09999 9415 ft 291 kts 140°
2026-05-04 14:51 50.06702 14.12158 10167 ft 296 kts 140°
2026-05-04 14:51 50.05142 14.14411 10443 ft 318 kts 140°
2026-05-04 14:52 50.03459 14.16832 10618 ft 341 kts 140°
2026-05-04 14:52 50.01658 14.19410 10885 ft 359 kts 140°
2026-05-04 14:52 49.99799 14.22067 11479 ft 366 kts 140°
2026-05-04 14:52 49.97914 14.24757 12145 ft 370 kts 140°
2026-05-04 14:53 49.96010 14.27469 12832 ft 373 kts 140°
2026-05-04 14:53 49.94089 14.30201 13511 ft 376 kts 140°
2026-05-04 14:53 49.92147 14.32959 14123 ft 380 kts 140°
2026-05-04 14:53 49.90188 14.35734 14709 ft 383 kts 140°
2026-05-04 14:54 49.88211 14.38528 15295 ft 386 kts 140°
2026-05-04 14:54 49.86213 14.41348 15887 ft 390 kts 140°
2026-05-04 14:54 49.84199 14.44189 16460 ft 393 kts 140°
2026-05-04 14:54 49.82165 14.47055 17042 ft 397 kts 140°
2026-05-04 14:55 49.80114 14.49941 17624 ft 400 kts 140°
2026-05-04 14:55 49.78045 14.52851 18194 ft 403 kts 140°
2026-05-04 14:55 49.75960 14.55777 18694 ft 407 kts 141°
2026-05-04 14:55 49.73855 14.58725 19193 ft 410 kts 140°
2026-05-04 14:56 49.71737 14.61691 19687 ft 412 kts 140°
2026-05-04 14:56 49.70328 14.63664 20012 ft 414 kts 140°
2026-05-04 14:56 49.67461 14.67677 20653 ft 418 kts 140°
2026-05-04 14:56 49.65299 14.70698 21113 ft 420 kts 140°
2026-05-04 14:57 49.63123 14.73731 21574 ft 423 kts 140°
2026-05-04 14:57 49.61675 14.75745 21861 ft 424 kts 140°
2026-05-04 14:57 49.59474 14.78803 22306 ft 427 kts 140°
2026-05-04 14:57 49.57262 14.81875 22734 ft 430 kts 140°
2026-05-04 14:58 49.55033 14.84969 23154 ft 432 kts 140°
2026-05-04 14:58 49.52791 14.88075 23555 ft 435 kts 140°
2026-05-04 14:58 49.50529 14.91184 23874 ft 437 kts 140°
2026-05-04 14:58 49.48249 14.94302 24186 ft 440 kts 140°
2026-05-04 14:59 49.45957 14.97429 24510 ft 442 kts 140°
2026-05-04 14:59 49.43650 15.00573 24817 ft 444 kts 140°
2026-05-04 14:59 49.38992 15.06902 25415 ft 449 kts 140°
2026-05-04 15:00 49.36643 15.10083 25711 ft 452 kts 140°
2026-05-04 15:00 49.34281 15.13278 26003 ft 454 kts 140°
2026-05-04 15:00 49.31906 15.16487 26282 ft 456 kts 140°
2026-05-04 15:01 49.27124 15.22934 26836 ft 460 kts 140°
2026-05-04 15:01 49.24710 15.26181 27100 ft 462 kts 140°
2026-05-04 15:01 49.22292 15.29430 27352 ft 464 kts 140°
2026-05-04 15:01 49.19861 15.32691 27619 ft 466 kts 140°
2026-05-04 15:02 49.17419 15.35961 27851 ft 468 kts 140°
2026-05-04 15:02 49.14966 15.39243 28082 ft 470 kts 140°
2026-05-04 15:02 49.12501 15.42536 28309 ft 471 kts 140°
2026-05-04 15:02 49.10029 15.45837 28531 ft 473 kts 140°
2026-05-04 15:03 49.07557 15.49134 28842 ft 472 kts 140°
2026-05-04 15:03 49.05084 15.52430 29158 ft 472 kts 140°
2026-05-04 15:03 49.02614 15.55719 29469 ft 471 kts 140°
2026-05-04 15:03 49.00146 15.59003 29779 ft 471 kts 140°
2026-05-04 15:04 48.97678 15.62282 30087 ft 471 kts 140°
2026-05-04 15:04 48.95209 15.65561 30353 ft 470 kts 140°
2026-05-04 15:04 48.92747 15.68831 30625 ft 470 kts 140°
2026-05-04 15:04 48.90286 15.72099 30888 ft 470 kts 140°
2026-05-04 15:05 48.87827 15.75364 31144 ft 469 kts 140°
2026-05-04 15:05 48.85366 15.78631 31404 ft 469 kts 140°
2026-05-04 15:05 48.82911 15.81886 31677 ft 469 kts 140°
2026-05-04 15:05 48.80456 15.85138 31940 ft 468 kts 140°
2026-05-04 15:06 48.78000 15.88385 32203 ft 468 kts 140°
2026-05-04 15:06 48.75550 15.91622 32462 ft 468 kts 140°
2026-05-04 15:06 48.73093 15.94862 32713 ft 467 kts 140°
2026-05-04 15:07 48.68187 16.01321 33202 ft 468 kts 140°
2026-05-04 15:07 48.65731 16.04548 33467 ft 467 kts 140°
2026-05-04 15:07 48.63278 16.07769 33725 ft 467 kts 140°
2026-05-04 15:07 48.60824 16.10989 33973 ft 467 kts 140°
2026-05-04 15:08 48.58373 16.14202 34193 ft 467 kts 140°
2026-05-04 15:08 48.55922 16.17413 34425 ft 466 kts 140°
2026-05-04 15:08 48.53474 16.20620 34647 ft 466 kts 140°
2026-05-04 15:08 48.51029 16.23823 34873 ft 465 kts 140°
2026-05-04 15:09 48.48588 16.27018 35088 ft 465 kts 140°
2026-05-04 15:09 48.46150 16.30208 35294 ft 464 kts 140°
2026-05-04 15:09 48.43745 16.33353 35520 ft 464 kts 140°
2026-05-04 15:10 48.38844 16.39750 35889 ft 463 kts 140°
2026-05-04 15:10 48.36413 16.42918 36075 ft 462 kts 140°
2026-05-04 15:10 48.31585 16.49200 36407 ft 462 kts 140°
2026-05-04 15:11 48.29162 16.52349 36592 ft 461 kts 140°
2026-05-04 15:11 48.26737 16.55496 36763 ft 460 kts 140°
2026-05-04 15:11 48.24317 16.58635 36934 ft 460 kts 140°
2026-05-04 15:12 48.19478 16.64897 36975 ft 459 kts 140°
2026-05-04 15:12 48.14634 16.71144 36981 ft 460 kts 140°
2026-05-04 15:13 48.09781 16.77381 36970 ft 460 kts 140°
2026-05-04 15:13 48.04919 16.83609 36976 ft 460 kts 140°
2026-05-04 15:14 48.00058 16.89822 36977 ft 460 kts 140°
2026-05-04 15:14 47.95193 16.96023 36990 ft 460 kts 141°
2026-05-04 15:15 47.90321 17.02217 37004 ft 460 kts 140°
2026-05-04 15:15 47.85444 17.08399 36995 ft 460 kts 141°
2026-05-04 15:16 47.78086 17.17689 37003 ft 461 kts 141°
2026-05-04 15:17 47.70779 17.26865 37018 ft 461 kts 140°
2026-05-04 15:17 47.63392 17.36093 37027 ft 461 kts 141°
2026-05-04 15:18 47.58485 17.42199 37030 ft 460 kts 141°
2026-05-04 15:19 47.51158 17.51279 37034 ft 460 kts 140°
2026-05-04 15:19 47.43780 17.60368 37034 ft 460 kts 140°
2026-05-04 15:20 47.38821 17.66447 37032 ft 460 kts 140°
2026-05-04 15:20 47.33924 17.72424 37034 ft 460 kts 141°
2026-05-04 15:21 47.28956 17.78465 37042 ft 460 kts 141°
2026-05-04 15:22 47.21577 17.87403 37051 ft 460 kts 141°
2026-05-04 15:22 47.14158 17.96346 37053 ft 459 kts 141°
2026-05-04 15:23 47.09213 18.02283 37056 ft 459 kts 141°
2026-05-04 15:23 47.04268 18.08201 37059 ft 459 kts 141°
2026-05-04 15:24 46.94371 18.19995 37068 ft 458 kts 141°
2026-05-04 15:25 46.89422 18.25873 37066 ft 458 kts 141°
2026-05-04 15:26 46.82004 18.34656 37064 ft 458 kts 141°
2026-05-04 15:26 46.74582 18.43409 37063 ft 457 kts 141°
2026-05-04 15:27 46.67160 18.52137 37057 ft 457 kts 141°
2026-05-04 15:28 46.59730 18.60849 37048 ft 457 kts 141°
2026-05-04 15:29 46.52289 18.69552 37054 ft 458 kts 141°
2026-05-04 15:30 46.34875 18.89814 37061 ft 459 kts 141°
2026-05-04 15:31 46.27391 18.98479 37065 ft 460 kts 141°
2026-05-04 15:32 46.14883 19.12895 37074 ft 460 kts 141°
2026-05-04 15:34 46.02347 19.27257 37079 ft 460 kts 141°
2026-05-04 15:34 45.94823 19.35839 37083 ft 460 kts 141°
2026-05-04 15:35 45.87276 19.44393 37087 ft 461 kts 141°
2026-05-04 15:36 45.79713 19.52920 37087 ft 461 kts 141°
2026-05-04 15:36 45.74665 19.58589 37084 ft 461 kts 141°
2026-05-04 15:37 45.69607 19.64255 37087 ft 461 kts 141°
2026-05-04 15:37 45.64549 19.69902 37082 ft 461 kts 141°
2026-05-04 15:38 45.59486 19.75538 37086 ft 461 kts 141°
2026-05-04 15:38 45.54416 19.81164 37084 ft 461 kts 141°
2026-05-04 15:39 45.50169 19.85866 37085 ft 461 kts 141°
2026-05-04 15:40 45.42593 19.94237 37085 ft 461 kts 141°
2026-05-04 15:40 45.37521 19.99831 37103 ft 461 kts 141°
2026-05-04 15:41 45.32445 20.05412 37092 ft 461 kts 141°
2026-05-04 15:41 45.27371 20.10984 37094 ft 461 kts 141°
2026-05-04 15:42 45.22299 20.16550 37091 ft 461 kts 141°
2026-05-04 15:42 45.17221 20.22115 37087 ft 461 kts 141°
2026-05-04 15:43 45.12143 20.27674 37086 ft 462 kts 141°
2026-05-04 15:43 45.07062 20.33228 37084 ft 462 kts 141°
2026-05-04 15:44 45.01973 20.38783 37080 ft 462 kts 141°
2026-05-04 15:44 44.96881 20.44338 37083 ft 463 kts 141°
2026-05-04 15:45 44.91785 20.49887 37085 ft 463 kts 141°
2026-05-04 15:45 44.86678 20.55440 37084 ft 464 kts 141°
2026-05-04 15:46 44.81565 20.60989 37085 ft 464 kts 141°
2026-05-04 15:46 44.76446 20.66535 37090 ft 465 kts 141°
2026-05-04 15:47 44.71319 20.72083 37101 ft 465 kts 141°
2026-05-04 15:47 44.66187 20.77622 37109 ft 465 kts 141°
2026-05-04 15:48 44.61055 20.83148 37114 ft 465 kts 141°
2026-05-04 15:48 44.53349 20.91416 37118 ft 465 kts 141°
2026-05-04 15:49 44.48216 20.96910 37122 ft 464 kts 141°
2026-05-04 15:49 44.43083 21.02402 37125 ft 464 kts 141°
2026-05-04 15:50 44.37957 21.07881 37120 ft 463 kts 141°
2026-05-04 15:50 44.32837 21.13343 37130 ft 463 kts 141°
2026-05-04 15:51 44.27718 21.18790 37127 ft 463 kts 141°
2026-05-04 15:51 44.22598 21.24230 37125 ft 462 kts 141°
2026-05-04 15:52 44.17480 21.29665 37125 ft 462 kts 141°
2026-05-04 15:52 44.12366 21.35095 37121 ft 463 kts 141°
2026-05-04 15:53 44.07248 21.40525 37116 ft 462 kts 141°
2026-05-04 15:53 44.02133 21.45951 37110 ft 463 kts 141°
2026-05-04 15:54 43.97013 21.51379 37114 ft 463 kts 141°
2026-05-04 15:54 43.91890 21.56804 37118 ft 463 kts 141°
2026-05-04 15:55 43.86773 21.62218 37115 ft 463 kts 141°
2026-05-04 15:55 43.81658 21.67621 37120 ft 463 kts 141°
2026-05-04 15:56 43.76540 21.73025 37120 ft 463 kts 141°
2026-05-04 15:56 43.71424 21.78423 37121 ft 463 kts 141°
2026-05-04 15:57 43.66305 21.83817 37118 ft 463 kts 141°
2026-05-04 15:57 43.61188 21.89201 37114 ft 463 kts 141°
2026-05-04 15:58 43.56070 21.94574 37108 ft 462 kts 141°
2026-05-04 15:58 43.50988 21.99905 37105 ft 462 kts 141°
2026-05-04 15:59 43.45876 22.05273 37102 ft 462 kts 141°
2026-05-04 15:59 43.40770 22.10638 37099 ft 462 kts 141°
2026-05-04 16:00 43.35666 22.16003 37102 ft 462 kts 141°
2026-05-04 16:00 43.30565 22.21364 37102 ft 461 kts 141°
2026-05-04 16:01 43.25474 22.26722 37104 ft 461 kts 141°
2026-05-04 16:01 43.20381 22.32083 37109 ft 462 kts 141°
2026-05-04 16:02 43.15294 22.37446 37116 ft 461 kts 141°
2026-05-04 16:03 43.07669 22.45498 37112 ft 461 kts 141°
2026-05-04 16:03 43.02588 22.50863 37122 ft 461 kts 141°
2026-05-04 16:04 42.97515 22.56228 37139 ft 461 kts 141°
2026-05-04 16:04 42.89926 22.64265 37138 ft 460 kts 141°
2026-05-04 16:05 42.84877 22.69612 37137 ft 459 kts 141°
2026-05-04 16:06 42.77309 22.77624 37137 ft 459 kts 141°
2026-05-04 16:07 42.67270 22.88216 37134 ft 458 kts 141°
2026-05-04 16:08 42.57187 22.98802 37130 ft 458 kts 141°
2026-05-04 16:09 42.44579 23.11976 37122 ft 458 kts 141°
2026-05-04 16:10 42.34464 23.22480 37119 ft 458 kts 141°
2026-05-04 16:11 42.24323 23.32958 37116 ft 459 kts 141°
2026-05-04 16:12 42.09053 23.48668 37101 ft 462 kts 141°
2026-05-04 16:13 41.98834 23.59166 37106 ft 463 kts 141°
2026-05-04 16:14 41.88616 23.69696 37107 ft 463 kts 141°
2026-05-04 16:16 41.75850 23.82837 37102 ft 463 kts 141°
2026-05-04 16:17 41.63061 23.95956 37093 ft 464 kts 141°
2026-05-04 16:18 41.52601 24.06006 37082 ft 466 kts 157°
2026-05-04 16:19 41.42987 24.07690 37056 ft 468 kts 177°
2026-05-04 16:19 41.36514 24.08055 37052 ft 470 kts 177°
2026-05-04 16:20 41.20155 24.09025 37052 ft 471 kts 177°
2026-05-04 16:22 41.03760 24.10020 37062 ft 472 kts 177°
2026-05-04 16:23 40.84042 24.11196 37060 ft 473 kts 177°
2026-05-04 16:25 40.64279 24.12371 37066 ft 474 kts 177°
2026-05-04 16:26 40.42259 24.13665 37072 ft 476 kts 177°
2026-05-04 16:28 40.25688 24.14641 37080 ft 477 kts 178°
2026-05-04 16:29 40.02458 24.15996 37089 ft 477 kts 178°
2026-05-04 16:31 39.85862 24.16959 37107 ft 478 kts 178°
2026-05-04 16:32 39.65955 24.18106 37104 ft 479 kts 178°
2026-05-04 16:33 39.52633 24.18882 37096 ft 480 kts 178°
2026-05-04 16:34 39.42625 24.19453 37099 ft 480 kts 178°
2026-05-04 16:35 39.22587 24.20594 37099 ft 481 kts 178°
2026-05-04 16:36 39.12553 24.21174 37103 ft 481 kts 178°
2026-05-04 16:37 39.02515 24.21736 37107 ft 482 kts 178°
2026-05-04 16:38 38.89099 24.22485 37113 ft 483 kts 179°
2026-05-04 16:39 38.72282 24.23433 37119 ft 484 kts 179°
2026-05-04 16:40 38.58800 24.24189 37120 ft 485 kts 179°
2026-05-04 16:41 38.41907 24.25116 37126 ft 487 kts 179°
2026-05-04 16:43 38.24957 24.26079 37140 ft 488 kts 179°
2026-05-04 16:43 38.14768 24.26632 37138 ft 489 kts 180°
2026-05-04 16:45 37.94380 24.27753 37139 ft 489 kts 180°
2026-05-04 16:46 37.77404 24.28681 37144 ft 490 kts 180°
2026-05-04 16:47 37.63749 24.29426 37148 ft 492 kts 180°
2026-05-04 16:48 37.53692 24.31818 37142 ft 497 kts 156°
2026-05-04 16:48 37.50641 24.33856 37136 ft 498 kts 148°
2026-05-04 16:49 37.38881 24.43100 37137 ft 499 kts 148°
2026-05-04 16:50 37.27102 24.52315 37134 ft 499 kts 148°
2026-05-04 16:51 37.18261 24.59210 37135 ft 499 kts 149°
2026-05-04 16:52 37.06451 24.68385 37133 ft 499 kts 149°
2026-05-04 16:53 36.97594 24.75258 37134 ft 500 kts 149°
2026-05-04 16:54 36.85770 24.84395 37136 ft 500 kts 149°
2026-05-04 16:55 36.68040 24.98074 37128 ft 499 kts 149°
2026-05-04 16:56 36.53266 25.09387 37138 ft 498 kts 150°
2026-05-04 16:57 36.44431 25.16132 37136 ft 496 kts 150°
2026-05-04 16:58 36.32656 25.25079 36582 ft 496 kts 150°
2026-05-04 16:59 36.26796 25.29531 35387 ft 492 kts 151°
2026-05-04 17:00 36.15077 25.38397 32467 ft 495 kts 151°
2026-05-04 17:00 36.05664 25.43177 30268 ft 486 kts 166°
2026-05-04 17:01 35.99238 25.45753 28610 ft 484 kts 166°
2026-05-04 17:01 35.92854 25.48315 27006 ft 481 kts 166°
2026-05-04 17:02 35.86520 25.50865 25507 ft 476 kts 167°
2026-05-04 17:02 35.80253 25.53387 24075 ft 471 kts 167°
2026-05-04 17:03 35.77181 25.54619 23322 ft 469 kts 165°
2026-05-04 17:03 35.74091 25.55856 22479 ft 467 kts 168°
2026-05-04 17:03 35.68131 25.59049 20860 ft 475 kts 148°
2026-05-04 17:04 35.62983 25.64024 19212 ft 458 kts 148°
2026-05-04 17:04 35.57293 25.65978 17196 ft 409 kts 195°
2026-05-04 17:05 35.52838 25.62845 15123 ft 354 kts 244°
2026-05-04 17:05 35.51461 25.57374 13067 ft 332 kts 263°
2026-05-04 17:06 35.50553 25.51873 10969 ft 325 kts 265°
2026-05-04 17:06 35.50205 25.49151 9968 ft 320 kts 268°
2026-05-04 17:07 35.49864 25.43774 7838 ft 312 kts 270°
2026-05-04 17:07 35.49808 25.42877 7494 ft 311 kts 269°
2026-05-04 17:07 35.48509 25.38785 5957 ft 317 kts 235°
2026-05-04 17:07 35.46845 25.37076 5438 ft 310 kts 214°
2026-05-04 17:08 35.44829 25.36241 4957 ft 305 kts 191°
2026-05-04 17:08 35.40953 25.37323 4406 ft 275 kts 146°
2026-05-04 17:08 35.39597 25.38840 4241 ft 255 kts 126°
2026-05-04 17:09 35.38610 25.40583 4112 ft 245 kts 129°
2026-05-04 17:09 35.37234 25.41658 3973 ft 231 kts 174°
2026-05-04 17:09 35.35742 25.41467 3849 ft 207 kts 212°
2026-05-04 17:10 35.34187 25.39655 3634 ft 172 kts 255°
2026-05-04 17:10 35.32873 25.36048 2999 ft 136 kts 265°
2026-05-04 17:11 35.32786 25.34941 2811 ft 127 kts 279°
2026-05-04 17:11 35.32864 25.33879 2654 ft 124 kts 281°
2026-05-04 17:11 35.33003 25.31810 2294 ft 122 kts 281°
2026-05-04 17:12 35.33081 25.30764 2116 ft 124 kts 282°
2026-05-04 17:12 35.33213 25.28691 1809 ft 122 kts 281°
2026-05-04 17:13 35.33444 25.25595 1137 ft 126 kts 279°
2026-05-04 17:14 35.33666 25.22448 679 ft 126 kts 278°
2026-05-04 17:14 35.33732 25.21385 506 ft 124 kts 280°
2026-05-04 17:14 35.33884 25.19305 178 ft 122 kts 281°
2026-05-04 17:15 35.33957 25.18320 97 ft 105 kts 275°
2026-05-04 17:15 35.34027 25.17223 92 ft 30 kts 260°
2026-05-04 17:16 35.33945 25.17073 91 ft 6 kts 118°
2026-05-04 17:16 35.33925 25.17326 91 ft 9 kts 95°
2026-05-04 17:17 35.33919 25.17400 91 ft 8 kts 95°
2026-05-04 17:17 35.33905 25.17594 91 ft 6 kts 95°
2026-05-04 17:18 35.33881 25.17626 91 ft 5 kts 169°
2026-05-04 17:18 35.33844 25.17593 91 ft 5 kts 262°
2026-05-04 17:19 35.33869 25.17547 91 ft 0 kts 314°